Regional Weather Roundup
Issued by NWS

Home | Current Version | Previous Version | Graphics & Text | Print | Product List | Glossary On
Versions: 1 2 3 4 5 6 7 8 9 10 11 12 13 14 15 16 17 18 19 20 21 22 23 24 25 26 27 28 29 30 31 32 33 34 35 36 37 38 39 40 41 42 43 44 45 46 47 48 49 50
000
ASUS43 KMPX 221210
RWRMN
WEATHER ROUNDUP FOR MINNESOTA
NATIONAL WEATHER SERVICE TWIN CITIES/CHANHASSEN MN
700 AM CDT FRI AUG 22 2014


NOTE: "FAIR" INDICATES FEW OR NO CLOUDS BELOW 12,000 FEET WITH NO
SIGNIFICANT WEATHER AND/OR OBSTRUCTIONS TO VISIBILITY. N/A MEANS
CURRENT SKY AND/OR WEATHER CONDITIONS ARE NOT AVAILABLE.

MNZ060>063-068>070-221300-
   Twin Cities Metro

CITY           SKY/WX    TMP DP  RH WIND       PRES   REMARKS
TWIN CITIES    CLOUDY    71  70  96 NW8       29.91R
6HR MIN TEMP:  71; 6HR MAX TEMP:  73;

ST PAUL        CLOUDY    71  69  93 N9        29.90S
CRYSTAL        CLOUDY    70  67  90 NW8       29.90R
BLAINE         FOG       70  70 100 NW6       29.91S VSB 1/2
LAKEVILLE      CLOUDY    70  68  94 NW7       29.91R FOG
EDEN PRAIRIE   CLOUDY    72  69  90 N5        29.90S FOG
6HR MIN TEMP:  70; 6HR MAX TEMP:  73;

SOUTH ST PAUL  CLOUDY    72  69  90 CALM      29.90S
LAKE ELMO      CLOUDY    68  68 100 NW6       29.91S FOG
$$
MNZ001>005-007-008-013>017-022>024-027-028-221300-
   Northwest Minnesota

CITY           SKY/WX    TMP DP  RH WIND       PRES   REMARKS
BEMIDJI        CLOUDY    66  65  95 CALM      29.97R FOG
HALLOCK        CLOUDY    66  64  94 NW6       29.97R
ROSEAU         PTCLDY    66  61  82 CALM      29.96R
WARROAD        CLOUDY    68  64  88 E6        29.97R
THIEF RVR FALL CLOUDY    68  66  94 CALM      29.95S
CROOKSTON      CLOUDY    66  66 100 NW6       29.96R FOG
FOSSTON        CLOUDY    66  63  88 CALM      29.96S
DETROIT LAKES  CLOUDY    68  68 100 S3        29.98R FOG
MOORHEAD       LGT RAIN  66  66 100 CALM      29.96R VSB<1/4
PARK RAPIDS    CLOUDY    67  66  97 CALM      29.97R
MAHNOMEN       CLOUDY    67  67  99 CALM      29.96R FOG
$$
MNZ006-009>011-018-025>026-221300-
   North Central Minnesota

CITY           SKY/WX    TMP DP  RH WIND       PRES   REMARKS
BAUDETTE       CLOUDY    64  62  93 E3        29.97R
FLAG ISLAND    CLOUDY    66  63  88 NE3       29.96R
INTL FALLS     CLOUDY    64  61  90 CALM      29.97R
6HR MIN TEMP:  63; 6HR MAX TEMP:  64;

WASKISH        CLOUDY    64  63  94 CALM      29.97R
BIG FORK       PTCLDY    63  61  94 CALM      29.98R FOG
LONGVILLE      CLOUDY    64  64 100 CALM      29.96R FOG
GRAND RAPIDS   CLOUDY    63  61  94 CALM      29.97R
CRANE LAKE     CLOUDY    61  61 100 CALM      29.99R
ORR            CLOUDY    63  57  82 CALM      29.96R
COOK           CLOUDY    63  61  94 CALM      29.98R
WALKER         CLOUDY    65  64  97 CALM      29.96S
$$
MNZ012-019>021-037-221300-
   Northeast Minnesota

CITY           SKY/WX    TMP DP  RH WIND       PRES   REMARKS
DULUTH         FOG       62  60  93 CALM      29.96R VSB 1/4
6HR MIN TEMP:  62; 6HR MAX TEMP:  64; 6HR PCP:  0.01;

ELY            FOG       61  61 100 CALM      29.98R VSB 1/4
HIBBING        CLOUDY    65  61  87 CALM      29.97R FOG
EVELETH        CLOUDY    63  61  94 CALM      29.98S
DULUTH HARBOR  CLOUDY    61  59  94 NE13      29.96R FOG
TWO HARBORS    CLOUDY    61  55  82 NE3       29.94R HAZE
SILVER BAY     CLOUDY    59  59 100 NE8       29.95S FOG
GRAND MARAIS     N/A     61  59  93 NE8       29.97R
G MARAIS ARPRT FOG       59  55  88 N3        30.01R VSB 3/4
$$
MNZ029>031-032-039>041-046>048-054>057-064-221300-
   West Central Minnesota

CITY           SKY/WX    TMP DP  RH WIND       PRES   REMARKS
FERGUS FALLS   CLOUDY    68  66  94 CALM      29.95R FOG
WHEATON        FOG       64  64 100 CALM      29.98R VSB<1/4
MORRIS         FOG       68  66  94 CALM      29.94R VSB<1/4
ALEXANDRIA     CLOUDY    69  67  93 SE3       29.97R
ELBOW LAKE     CLOUDY    68  68  99 CALM      29.95S FOG
WADENA         FOG       66  66 100 CALM      29.96R VSB 1/2
GLENWOOD       FOG       66  66 100 CALM      29.97R VSB<1/4
APPLETON       FOG       70  66  88 CALM      29.94R VSB 1/4
BENSON         PTCLDY    66  66 100 CALM      29.94S FOG
ORTONVILLE     PTCLDY    66  64  94 CALM      29.94S FOG
MADISON        FOG       66  64  94 CALM      29.95R VSB 1/4
WILLMAR        FOG       72  70  94 CALM      29.96R VSB 1/4
$$
MNZ033>034-036-042>043-049>051-058-059-221300-
   Central Minnesota

CITY           SKY/WX    TMP DP  RH WIND       PRES   REMARKS
ST CLOUD       FOG       69  68  96 N5        29.93S VSB 1/2
6HR MIN TEMP:  69; 6HR MAX TEMP:  73;

SAUK CENTRE    CLOUDY    67  67  99 CALM      29.95S
PAYNESVILLE    CLOUDY    66  66 100 CALM      29.94S FOG
AITKIN         HAZE      66  61  82 CALM      29.95R VSB 1/2
PINE RIVER     CLOUDY    64  64 100 CALM      30.00R
BRAINERD       CLOUDY    64  63  96 CALM      29.96R FOG
STAPLES        CLOUDY    64  64 100 CALM      29.97R FOG
LONG PRAIRIE   FOG       66  66 100 CALM      29.96S VSB 1/4
LITTLE FALLS   CLOUDY    64  64 100 CALM      29.95S
LITCHFIELD     MOCLDY    70  70 100 NW5       29.94S FOG
BUFFALO        CLOUDY    70  68  93 CALM      29.94R FOG
MAPLE LAKE     CLOUDY    70  70  99 NW3       29.94R FOG
$$
MNZ037-044-045-052-053-221300-
   East Central Minnesota

CITY           SKY/WX    TMP DP  RH WIND       PRES   REMARKS
PRINCETON      FOG       66  64  94 N3        29.94R VSB 1/2
MORA           CLOUDY    61  61 100 CALM      29.96R FOG
CAMBRIDGE      HAZE      66  59  77 CALM      29.92R VSB 3/4
RUSH CITY      CLOUDY    63  62  96 NW5       29.94R FOG
MOOSE LAKE     CLOUDY    61  59  94 NE5       29.93R
HINCKLEY       CLOUDY    61  61 100 N3        29.94R FOG
CLOQUET        CLOUDY    61  59  94 CALM      29.96R FOG
MCGREGOR       CLOUDY    63  61  94 CALM      29.95S
$$
MNZ071>073-080-081-089-090-097-098-221300-
   Southwest Minnesota

CITY           SKY/WX    TMP DP  RH WIND       PRES   REMARKS
MONTEVIDEO     FOG       70  70 100 SE3       29.95R VSB 1/4
GRANITE FALLS  FOG       69  69 100 CALM      29.95R VSB 1/4
CANBY          CLEAR     64  63  97 CALM      29.96R FOG
MARSHALL       CLOUDY    66  63  88 CALM      29.93S
REDWOOD FALLS  FOG       71  71 100 CALM      29.93R VSB 1/4
OLIVIA         FOG       70  68  94 N3        29.92S VSB<1/4
PIPESTONE      MOCLDY    66  64  94 E3        29.95S FOG
WINDOM         FOG       70  66  88 N5        29.94R VSB 1/4
WORTHINGTON    CLEAR     64   9  11 N7        29.95S
JACKSON        FOG       70  68  94 CALM      29.94R VSB<1/4
TRACY          FOG       68  67  97 CALM      29.95R VSB 3/4
SLAYTON        PTCLDY    64  64 100 CALM      29.96R FOG
$$
MNZ065>067-074>077-082>085-091>093-221300-
   South Central Minnesota

CITY           SKY/WX    TMP DP  RH WIND       PRES   REMARKS
MANKATO        CLOUDY    72  66  83 N8        29.92R VSB<1/4
NEW ULM        CLOUDY    72  72 100 CALM      29.92S FOG
ST JAMES       FOG       72  70  94 N3        29.93R VSB<1/4
FAIRMONT       CLOUDY    70  66  88 MISG      29.92R VSB<1/4
GLENCOE        MOCLDY    70  68  92 NW5       29.91F FOG
FARIBAULT      CLOUDY    73  68  83 CALM      29.92R HAZE
OWATONNA       CLOUDY    72  70  94 NW7       29.92R FOG
WASECA         FOG       72  68  88 N7        29.93S VSB 1/2
ALBERT LEA     FOG       72  72 100 N3        29.92R VSB<1/4
$$
MNZ078>079-086>088-094>096-221300-
   Southeast Minnesota

CITY           SKY/WX    TMP DP  RH WIND       PRES   REMARKS
ROCHESTER      FOG       72  71  97 N8        29.92R VSB<1/4
6HR MIN TEMP:  70; 6HR MAX TEMP:  73;

RED WING       CLOUDY    73  70  88 CALM      29.89R
STANTON        CLOUDY    72  69  92 N6        29.90R FOG
DODGE CENTER   CLOUDY    72  72 100 N6        29.92R FOG
WINONA         CLOUDY    73  72  94 CALM      29.89R
AUSTIN         CLOUDY    72  70  94 NW1       29.91R VSB 3/4
PRESTON        FOG       70  70 100 CALM      29.92R VSB 1/4
$$
ABBREVIATIONS USED IN REMARKS
   TC - TEMPERATURES IN CELSIUS
  WCI - WIND CHILL INDEX
   HX - HEAT INDEX
  VSB - VISIBILITY
$$



USA.gov is the U.S. government's official web portal to all federal, state and local government web resources and services.